Regional Weather Roundup
Issued by NWS Jackson, KY

Home | Current Version | Previous Version | Text Only | Print | Product List | Glossary Off
Versions: 1 2 3 4 5 6 7 8 9 10 11 12 13 14 15 16 17 18 19 20 21 22 23 24 25 26 27

000
ASUS43 KJKL 040110
RWRJKL

EAST KENTUCKY HOURLY WEATHER ROUNDUP
NATIONAL WEATHER SERVICE JACKSON KY
900 PM EDT TUE MAY 03 2016

NOTE: "FAIR" INDICATES FEW OR NO CLOUDS BELOW 12,000 FEET WITH
NO SIGNIFICANT WEATHER AND/OR OBSTRUCTIONS TO VISIBILITY.

* THESE REPORTS ARE NOT UNDER NWS QUALITY CONTROL AND MAY NOT
  REPORT WEATHER SUCH AS PRECIPITATION AND FOG.

KYZ079-080-083-085-087-088-110-112-115-119-120-040200
...EASTERN KENTUCKY...

CITY           SKY/WX    TMP DP  RH WIND       PRES   REMARKS
JACKSON        CLOUDY    55  45  68 W5        29.88S
LONDON         CLOUDY    57  46  66 NW3       29.89S
SOMERSET*      CLOUDY    55  45  67 NW5       29.91S
MONTICELLO*    CLOUDY    58  50  75 NW3       29.92S
WILLIAMSBURG*  MOCLDY    55  48  76 CALM      29.90S
MIDDLESBORO*   PTCLDY    57  48  71 W5        29.89S
HARLAN APT*      N/A     55  46  71 CALM      29.89R
HAZARD APT*    PTCLDY    55  48  76 W3        29.88S
PIKE CO APT*     N/A     55  49  80 W6        29.87S
BIG SANDY APT* CLOUDY    56  48  74 W3        29.87S
MOREHEAD APT*  CLOUDY    55  48  76 NW7       29.89S
$$

KYZ035-036-041-042-044-050-067-078-099-040200
...CENTRAL KENTUCKY...

CITY           SKY/WX    TMP DP  RH WIND       PRES   REMARKS
MT STERLING*   CLOUDY    55  50  82 N3        29.90R
FLEMING/MASON* CLOUDY    52  51  95 W7        29.89R
DANVILLE*      CLOUDY    55  45  67 NW6       29.91R
RICHMOND*      CLOUDY    57  46  67 SW5       29.88S
LEXINGTON      CLOUDY    56  49  77 NW6       29.89R
FRANKFORT      CLOUDY    56  48  74 NW3       29.89R
LOUISVILLE     CLOUDY    58  44  60 W8        29.90S
LEBANON*         N/A     55  48  76 W3        29.91R
BOWLING GREEN  MOCLDY    59  44  57 CALM      29.92S
$$

KYZ091>093-OHZ055-061-077-WVZ005-015-034-035-042-040200
...SOUTHERN OHIO/WEST VIRGINIA...

CITY           SKY/WX    TMP DP  RH WIND       PRES   REMARKS
COVINGTON      CLOUDY    54  51  90 SW6       29.87S
COLUMBUS       CLOUDY    56  45  66 W7        29.84R
DAYTON         CLOUDY    53  48  83 SW6       29.87R
WILMINGTON     CLOUDY    56  46  69 W6        29.85S
HUNTINGTON     MOCLDY    56  50  80 W3        29.85S
CHARLESTON     MOCLDY    56  53  90 CALM      29.85S
PINEVILLE*     MOCLDY    58  48  69 MISG      29.91R
BECKLEY        LGT RAIN  52  49  89 N13       29.87R
$$

VAZ002-007-008-TNZ017-027-036-066-071-040200
...SOUTHWEST VIRGINIA/EAST TENNESSEE...

CITY           SKY/WX    TMP DP  RH WIND       PRES   REMARKS
WISE*            N/A     54  41  62 CALM      29.90R
BRISTOL        MOCLDY    62  45  53 W6        29.85R
MORRISTOWN*    CLOUDY    61  48  63 NW8       29.86R
SEVIERVILLE*   CLOUDY    63  48  59 NW5       29.86R
KNOXVILLE      MOCLDY    63  48  58 W7        29.86R
OAK RIDGE      CLEAR     63  46  54 CALM      29.88S
CROSSVILLE     CLOUDY    58  45  62 N8        29.91S
NASHVILLE      CLOUDY    61  44  53 NW7       29.93S
$$

...KEY TO REMARKS...
VSB - VISIBILITY IN MILES
WCI - WIND CHILL INDEX
HX  - HEAT INDEX

$$




USA.gov is the U.S. government's official web portal to all federal, state and local government web resources and services.